Stations météo

Publicité
Cap-de-la Heve, France (7028): Température de l'air & dewpoint: 12.02.2020 07:00:00 - 18.02.2020 07:00:00 (CET)Cap-de-la Heve, France (7028): Température de l'air 5cm: 12.02.2020 07:00:00 - 18.02.2020 07:00:00 (CET)Cap-de-la Heve, France (7028): Vitesse du vent & gusts: 12.02.2020 07:00:00 - 18.02.2020 07:00:00 (CET)Cap-de-la Heve, France (7028): Direction du vent: 12.02.2020 07:00:00 - 18.02.2020 07:00:00 (CET)Cap-de-la Heve, France (7028): reduced air pressure: 12.02.2020 07:00:00 - 18.02.2020 07:00:00 (CET)Cap-de-la Heve, France (7028): visibility: 12.02.2020 07:00:00 - 18.02.2020 07:00:00 (CET)Cap-de-la Heve, France (7028): Quantités de précipitations: 12.02.2020 07:00:00 - 18.02.2020 07:00:00 (CET)
Date & Time tt [°C] td [°C] tt 5cm [°C] ff [km/h] ff [knt] fx [km/h] fx [knt] dd ppp [hPa] vv [km] rr [mm]
18.02.2020 07:00:00 6,0 4,2 5,5 23 12 69 37 SSW 1024,9 15 0,0
18.02.2020 06:00:00 6,2 4,5 5,9 27 15 61 33 SW 1025,0 - 0,0
18.02.2020 05:00:00 6,3 4,3 6,0 29 16 62 33 SW 1024,6 - 0,0
18.02.2020 04:00:00 6,6 4,8 6,1 30 16 61 33 SW 1024,6 15 0,0
18.02.2020 03:00:00 6,5 4,5 5,9 30 16 59 32 SW 1024,5 - 0,0
18.02.2020 02:00:00 6,2 4,4 5,9 26 14 61 33 SW 1024,3 - 0,0
18.02.2020 01:00:00 6,6 4,1 6,1 29 15 69 37 SW 1024,0 15 0,0
18.02.2020 00:00:00 6,6 4,3 5,6 32 17 63 34 SW 1023,2 - 0,0
17.02.2020 23:00:00 6,6 4,3 4,8 31 17 75 40 WSW 1022,7 - 0,8
17.02.2020 22:00:00 6,8 4,5 6,0 33 18 77 42 WSW 1021,8 15 0,0
17.02.2020 21:00:00 7,2 4,5 6,8 30 16 69 37 SW 1020,9 - 0,0
17.02.2020 20:00:00 7,2 4,3 6,3 30 16 89 48 SW 1020,6 - 0,0
17.02.2020 19:00:00 7,8 4,6 7,5 35 19 75 41 SW 1019,0 - 0,0
17.02.2020 18:00:00 7,9 4,1 7,7 42 23 76 41 WSW 1018,2 - 0,0
17.02.2020 17:00:00 8,2 5,5 7,6 45 25 81 44 WSW 1017,7 - 0,0
17.02.2020 16:00:00 8,5 5,4 6,5 36 19 83 45 SW 1016,9 - 0,0
17.02.2020 15:00:00 6,9 5,2 6,2 49 27 98 53 WSW 1015,9 - 0,4
17.02.2020 14:00:00 9,1 4,3 9,5 37 20 75 41 SW 1015,4 - 0,0
17.02.2020 13:00:00 9,5 4,1 9,7 - - 76 41 SW 1015,2 18 0,0
17.02.2020 12:00:00 9,0 4,4 7,3 34 18 71 38 SW 1015,1 - 0,0
17.02.2020 11:00:00 6,9 4,2 7,2 36 19 79 43 W 1015,4 - 0,0
17.02.2020 10:00:00 8,2 4,4 7,7 27 15 71 38 SSW 1013,9 20 0,0
17.02.2020 09:00:00 7,9 5,4 7,5 22 12 61 33 SSW 1012,9 - 0,0
17.02.2020 08:00:00 7,7 6,0 7,2 22 12 58 31 SSW 1012,3 - 0,0
17.02.2020 07:00:00 7,5 6,0 6,9 23 12 53 28 SSW 1012,5 - 0,0
17.02.2020 06:00:00 7,2 5,5 6,9 28 15 45 24 SSW 1013,2 - 0,0
17.02.2020 05:00:00 7,6 5,2 7,1 19 10 47 25 SSW 1013,2 - 0,0
17.02.2020 04:00:00 7,6 5,4 7,2 15 8 58 31 SSW 1013,3 - 0,0
17.02.2020 03:00:00 7,9 5,4 7,6 22 12 64 34 SSW 1013,3 - 0,0
17.02.2020 02:00:00 8,0 4,9 7,8 24 13 71 38 SW 1013,1 - 0,0
17.02.2020 01:00:00 8,1 5,2 7,9 29 16 74 40 SW 1012,4 20 0,0
17.02.2020 00:00:00 8,4 5,3 8,1 34 18 80 43 SW 1011,6 - 0,0
16.02.2020 23:00:00 8,7 5,6 8,3 39 21 84 46 SW 1010,4 - 0,0
16.02.2020 22:00:00 8,5 6,6 8,0 29 15 82 44 SW 1009,5 18 0,0
16.02.2020 21:00:00 9,0 5,9 8,3 37 20 87 47 SW 1007,6 - 0,0
16.02.2020 20:00:00 8,5 5,9 7,7 25 14 83 45 SSW 1007,1 - 0,0
16.02.2020 19:00:00 8,0 6,0 7,1 42 23 84 46 SW 1005,4 - 1,0
16.02.2020 18:00:00 7,6 7,5 7,5 27 15 51 28 SW 1005,2 - 1,4
16.02.2020 17:00:00 7,3 6,9 7,4 38 21 91 49 WNW 1004,2 - 2,2
16.02.2020 16:00:00 13,9 10,7 13,7 41 22 115 62 SSW 998,8 12 0,0
16.02.2020 15:00:00 14,2 10,6 13,7 39 21 113 61 SSW 997,8 - 0,0
16.02.2020 14:00:00 13,7 10,7 13,6 36 20 99 54 SSW 998,4 - 0,0
16.02.2020 13:00:00 13,7 10,9 13,4 37 20 99 54 SSW 998,7 - 0,0
16.02.2020 12:00:00 13,4 11,1 12,8 38 20 84 45 SSW 999,8 - 0,0
16.02.2020 11:00:00 12,8 11,2 12,5 42 23 84 46 SSW 1001,0 - 0,0
16.02.2020 10:00:00 12,6 10,8 12,4 33 18 89 48 SSW 1001,2 - 0,0
16.02.2020 09:00:00 12,7 10,4 12,6 37 20 100 54 SSW 1001,0 - 0,0
16.02.2020 08:00:00 12,8 10,3 12,6 40 22 98 53 SSW 1000,8 - 0,0
16.02.2020 07:00:00 12,9 10,3 11,7 43 23 99 53 SSW 1001,3 - 0,0
16.02.2020 06:00:00 12,3 10,4 11,1 - - 101 55 - 1001,9 - 0,2
16.02.2020 05:00:00 11,7 10,8 10,9 47 25 106 57 SSW 1002,8 - 1,0
16.02.2020 04:00:00 12,0 10,4 10,9 42 23 91 49 SSW 1003,6 15 0,0
16.02.2020 03:00:00 11,6 10,5 10,8 58 31 91 49 SSW 1004,9 - 0,8
16.02.2020 02:00:00 11,3 10,4 10,8 49 26 82 45 SSW 1006,0 - 1,8
16.02.2020 01:00:00 11,6 10,0 10,7 41 22 95 51 SSW 1006,2 15 0,2
16.02.2020 00:00:00 12,1 9,5 11,6 45 25 93 50 SSW 1006,8 - 0,0
15.02.2020 23:00:00 11,8 9,0 11,7 54 29 95 51 SSW 1007,3 - 0,0
15.02.2020 22:00:00 12,0 9,0 11,8 38 21 86 47 SSW 1007,9 20 0,0
15.02.2020 21:00:00 12,0 9,0 11,7 40 22 91 49 SSW 1008,1 - 0,0
15.02.2020 20:00:00 11,7 9,1 11,4 51 28 91 49 SSW 1008,8 - 0,0
15.02.2020 19:00:00 11,6 8,8 10,2 55 30 85 46 S 1009,3 - 0,0
15.02.2020 18:00:00 11,6 8,4 10,6 43 23 85 46 SSW 1009,9 - 0,0
15.02.2020 17:00:00 11,7 8,2 11,5 51 28 81 44 SSW 1010,2 - 0,0
15.02.2020 16:00:00 11,6 8,1 11,4 54 29 80 43 SSW 1010,7 - 0,0
15.02.2020 15:00:00 11,8 8,1 11,7 51 28 80 43 SSW 1011,4 - 0,0
15.02.2020 14:00:00 11,8 8,1 11,5 38 20 83 45 SSW 1012,3 - 0,0
15.02.2020 13:00:00 11,3 8,3 11,2 46 25 64 35 SSW 1013,6 15 0,0
15.02.2020 12:00:00 11,5 8,5 11,7 42 23 62 34 S 1014,6 - 0,0
15.02.2020 11:00:00 10,8 8,9 10,3 41 22 66 35 S 1015,4 - 0,0
15.02.2020 10:00:00 10,2 8,6 10,2 35 19 65 35 S 1016,2 15 0,0
15.02.2020 09:00:00 10,0 8,9 9,7 40 22 66 36 S 1016,8 - 0,0
15.02.2020 08:00:00 10,0 8,9 9,7 48 26 65 35 S 1016,7 - 0,0
15.02.2020 07:00:00 9,7 8,9 9,2 45 24 67 36 S 1016,9 - 0,0
15.02.2020 06:00:00 9,5 8,6 9,2 40 22 60 32 S 1017,3 - 0,0
15.02.2020 05:00:00 9,5 8,6 9,2 45 25 63 34 S 1017,7 - 0,0
15.02.2020 04:00:00 9,4 8,3 9,1 34 18 47 25 S 1018,5 15 0,0
15.02.2020 03:00:00 9,2 8,1 8,6 38 20 51 28 S 1019,1 - 0,0
15.02.2020 02:00:00 8,9 7,7 8,6 30 16 41 22 S 1019,6 - 0,0
15.02.2020 01:00:00 8,9 7,2 8,7 26 14 38 20 S 1020,1 15 0,0
15.02.2020 00:00:00 9,1 7,0 8,8 25 14 43 23 S 1020,3 - 0,0
14.02.2020 23:00:00 9,1 6,7 8,9 30 16 43 23 S 1020,8 - 0,0
14.02.2020 22:00:00 9,5 6,6 9,1 30 16 42 23 S 1021,0 15 0,0
14.02.2020 21:00:00 9,6 6,7 9,2 29 16 41 22 S 1021,3 - 0,0
14.02.2020 20:00:00 9,6 6,9 9,3 25 14 34 18 S 1021,6 - 0,0
14.02.2020 19:00:00 10,2 6,7 9,8 21 12 31 17 S 1021,5 - 0,0
14.02.2020 18:00:00 10,1 6,8 9,8 24 13 40 22 S 1021,3 - 0,0
14.02.2020 17:00:00 10,4 7,1 10,8 28 15 39 21 SSW 1021,4 - 0,0
14.02.2020 16:00:00 10,7 7,0 11,5 26 14 39 21 S 1021,2 12 0,0
14.02.2020 15:00:00 10,8 7,1 12,3 27 15 37 20 SSW 1021,1 - 0,0
14.02.2020 14:00:00 11,1 7,4 12,0 23 12 34 19 S 1021,5 - 0,0
14.02.2020 13:00:00 10,3 7,0 12,0 23 12 37 20 SSW 1022,2 - 0,0
14.02.2020 12:00:00 9,8 7,4 9,6 20 11 34 18 SSW 1022,5 - 0,0
14.02.2020 11:00:00 8,6 7,2 8,7 11 6 41 22 SSW 1022,3 - 0,0
14.02.2020 10:00:00 8,2 7,0 8,1 14 8 37 20 SW 1022,1 - 0,0
14.02.2020 09:00:00 8,0 7,1 7,5 16 9 36 20 SW 1021,3 - 0,0
14.02.2020 08:00:00 7,9 7,1 7,6 15 8 36 19 WSW 1020,3 - 0,0
14.02.2020 07:00:00 8,0 7,2 7,9 22 12 33 18 W 1019,5 10 0,0
14.02.2020 06:00:00 8,1 7,2 7,9 26 14 39 21 W 1018,7 - 0,0
14.02.2020 05:00:00 8,1 7,3 7,9 29 15 45 24 W 1018,1 - 0,0
14.02.2020 04:00:00 8,2 7,4 7,8 32 17 44 24 W 1017,0 - 0,0
14.02.2020 03:00:00 8,3 7,5 8,1 32 17 49 26 W 1016,4 - 0,0
14.02.2020 02:00:00 8,4 7,6 8,1 29 16 63 34 W 1015,8 - 0,0
14.02.2020 01:00:00 8,3 7,4 7,8 27 15 49 26 WSW 1014,7 - 0,0
14.02.2020 00:00:00 8,0 6,9 7,5 31 17 42 23 W 1013,8 - 0,0
13.02.2020 23:00:00 8,3 7,1 7,7 15 8 43 23 W 1012,9 - 0,0
13.02.2020 22:00:00 8,7 6,3 8,1 21 12 42 23 WNW 1011,3 15 0,0
13.02.2020 21:00:00 8,7 6,7 7,9 23 12 51 28 WNW 1009,5 - 0,0
13.02.2020 20:00:00 8,8 6,8 8,3 22 12 64 35 WNW 1007,9 - 0,0
13.02.2020 19:00:00 9,1 6,4 8,8 25 13 68 37 W 1005,2 - 0,0
13.02.2020 18:00:00 9,2 6,3 8,6 37 20 76 41 W 1002,5 - 0,0
13.02.2020 17:00:00 9,5 6,4 9,6 39 21 74 40 W 1000,6 - 0,0
13.02.2020 16:00:00 9,1 6,5 8,3 34 18 100 54 W 998,7 - 0,0
13.02.2020 15:00:00 8,7 7,0 7,1 62 34 115 62 WSW 995,7 - 1,4
13.02.2020 14:00:00 7,6 6,4 7,1 44 24 107 58 SW 996,4 - 2,2
13.02.2020 13:00:00 8,2 5,5 7,3 28 15 105 57 SSW 996,8 10 0,0
13.02.2020 12:00:00 8,2 5,3 6,9 31 17 96 52 SSW 998,1 - 0,0
13.02.2020 11:00:00 8,8 5,0 7,0 34 18 82 45 SW 998,3 - 0,2
13.02.2020 10:00:00 8,2 6,0 7,4 32 17 71 38 SW 999,0 12 0,0
13.02.2020 09:00:00 8,1 6,2 5,8 31 17 63 34 SW 999,2 - 0,2
13.02.2020 08:00:00 5,9 5,6 2,6 30 16 101 55 WSW 999,4 - 5,9
13.02.2020 07:00:00 8,1 6,1 6,4 71 38 116 62 S 997,5 - 0,0
13.02.2020 06:00:00 7,4 5,0 6,4 58 32 96 52 S 1000,1 - 0,0
13.02.2020 05:00:00 7,3 4,4 6,2 48 26 85 46 S 1003,1 - 0,0
13.02.2020 04:00:00 7,0 4,5 5,8 42 23 75 40 S 1005,7 12 0,0
13.02.2020 03:00:00 6,7 4,5 6,5 34 18 55 30 S 1009,2 - 0,0
13.02.2020 02:00:00 6,7 4,2 6,5 31 17 57 31 S 1011,2 - 0,0
13.02.2020 01:00:00 6,7 4,2 6,4 35 19 57 31 S 1012,8 20 0,0
13.02.2020 00:00:00 7,0 4,5 6,8 34 19 55 30 S 1014,0 - 0,0
12.02.2020 23:00:00 7,0 4,5 6,7 38 20 52 28 S 1015,3 - 0,0
12.02.2020 22:00:00 7,1 4,1 6,6 29 16 48 26 S 1016,3 - 0,0
12.02.2020 21:00:00 7,1 3,9 6,1 24 13 35 19 S 1017,3 - 0,0
12.02.2020 20:00:00 7,1 4,1 6,7 16 9 26 14 S 1017,9 - 0,0
12.02.2020 19:00:00 7,1 4,6 6,7 18 10 27 14 S 1018,4 - 0,0
12.02.2020 18:00:00 7,5 5,1 7,3 9 5 30 16 SW 1018,9 - 0,0
12.02.2020 17:00:00 7,8 4,4 8,0 16 8 42 23 SW 1019,0 - 0,0
12.02.2020 16:00:00 8,0 3,5 9,0 17 9 38 21 SW 1019,5 18 0,0
12.02.2020 15:00:00 8,3 3,9 10,0 18 10 40 22 WSW 1019,5 - 0,0
12.02.2020 14:00:00 8,8 3,6 11,5 26 14 48 26 WSW 1020,3 - 0,0
12.02.2020 13:00:00 8,2 4,2 8,7 31 17 53 29 W 1020,8 18 0,0
12.02.2020 12:00:00 7,6 4,5 7,5 26 14 58 31 WSW 1020,5 - 0,0
12.02.2020 11:00:00 6,8 4,8 6,5 26 14 56 30 SW 1020,1 - 0,0
12.02.2020 10:00:00 5,8 4,3 5,7 23 13 58 32 SW 1019,6 - 0,0
12.02.2020 09:00:00 6,0 3,8 5,1 28 15 61 33 SW 1018,9 - 0,0
12.02.2020 08:00:00 5,7 4,3 4,8 29 16 66 36 SW 1018,3 - 0,2
12.02.2020 07:00:00 5,5 4,1 5,0 30 16 63 34 SW 1018,0 - 0,0

tt = Température de l'air
td = dewpoint
tt 5cm = Température de l'air 5cm
ff = Vitesse du vent
fx = gusts
dd = Direction du vent
ppp = reduced air pressure
vv = visibility
rr = Quantités de précipitations

stations d'obs. à proximité